User: anonymous   Login
Location: Pine Mountain Observatory
(43.7910°N, 120.9377°W)
Time: 00:02:52
(UTC-08:00)
Language:

Meteor 2-19 Rocket - Orbit

View from above orbital plane
View from above orbital plane
View from above satellite
View from above satellite

Ground track
Ground track

The orbit data is extracted from the following two-line orbital elements,

1 20671U 90057B   15063.16086669  .00000046  00000-0  27539-4 0  9994
2 20671 082.5490 316.6500 0015975 141.5271 021.6182 13.84586288247371
Epoch (UTC): 04 March 2015 03:51:38
Eccentricity: 0.0015975
inclination: 82.5490°
perigee height: 936 km
apogee height: 959 km
right ascension of ascending node: 316.6500°
argument of perigee: 141.5271°
revolutions per day: 13.84586288
mean anomaly at epoch: 21.6182°
orbit number at epoch: 24737

The dashed part of the orbit path shows where the satellite is in the earth's shadow,  

DLR